Weather History for KEKN - December, 2010

Change the Weather History Date:

Sunday, December 12, 2010

  Actual Average Record
Temperature  
Mean Temperature 34 °F 33 °F  
Max Temperature 45 °F 43 °F 68 °F (1965)
Min Temperature 23 °F 24 °F -10 °F (1988)
Degree Days  
Heating Degree Days 31 32  
Month to date heating degree days 468 362  
Since 1 July heating degree days 1655 1646  
Cooling Degree Days 0 0  
Month to date cooling degree days 0 0  
Year to date cooling degree days 715 475  
Moisture  
Dew Point 31 °F    
Average Humidity 78    
Maximum Humidity 85    
Minimum Humidity 70    
Precipitation  
Precipitation 0.05 in 0.12 in 0.80 in (1902)
Month to date precipitation 1.47 1.36  
Year to date precipitation 39.07 44.03  
Snow  
Snow 0.20 in - - ()
Month to date snowfall 14.5  
Since 1 September snowfall 14.5  
Snow Depth 0.00 in    
Sea Level Pressure  
Sea Level Pressure 29.46 in    
Wind  
Wind Speed 8 mph (SW)    
Max Wind Speed 18 mph    
Max Gust Speed 24 mph    
Visibility 9 miles    
Events Rain , Snow    
T = Trace of Precipitation, MM = Missing Value Source: NWS Daily Summary

Daily Weather History Graph

Daily Weather History Graph

Search for Another Location

Airport or City:

Trip Planner

Search our weather history database for the weather conditions in past years. The results will help you decide how hot, cold, wet, or windy it might be!

Date:

Astronomy

Dec. 12, 2010 Rise Set
Actual Time 7:28 AM EST 4:57 PM EST
Civil Twilight 6:58 AM EST 5:27 PM EST
Nautical Twilight 6:25 AM EST 6:00 PM EST
Astronomical Twilight 5:52 AM EST 6:33 PM EST
Moon 11:46 AM EST (12/12) 11:54 PM EST (12/12)
Length of Visible Light 10h 28m
Length of Day
9h 29m
Waxing Crescent, 42% of the Moon is Illuminated
Dec 12
Waxing Crescent
Dec 13
First Quarter
Dec 21
Full
Dec 27
Last Quarter
Jan 4
New

Hourly Weather History & Observations

Time (EST) Temp. Windchill Dew Point Humidity Pressure Visibility Wind Dir Wind Speed Gust Speed Precip Events Conditions
12:51 AM 42.1 °F 36.6 °F 33.1 °F 70% 29.78 in 10.0 mi South 9.2 mph 17.3 mph N/A   Overcast
1:51 AM 42.1 °F 36.1 °F 34.0 °F 73% 29.73 in 10.0 mi SSE 10.4 mph - N/A   Overcast
2:51 AM 41.0 °F 38.0 °F 34.0 °F 76% 29.68 in 10.0 mi South 4.6 mph - N/A   Overcast
3:51 AM 43.0 °F 39.5 °F 35.1 °F 74% 29.62 in 10.0 mi SSE 5.8 mph - N/A   Mostly Cloudy
4:13 AM 42.8 °F 38.6 °F 35.6 °F 76% 29.58 in 10.0 mi SSE 6.9 mph - N/A   Overcast
4:48 AM 42.8 °F 38.0 °F 35.6 °F 76% 29.53 in 10.0 mi SSE 8.1 mph - N/A   Overcast
4:51 AM 43.0 °F 38.8 °F 36.0 °F 76% 29.56 in 10.0 mi SSE 6.9 mph - N/A   Overcast
5:51 AM 42.1 °F 40.2 °F 36.0 °F 79% 29.57 in 10.0 mi SSW 3.5 mph - N/A   Overcast
6:12 AM 44.6 °F 40.2 °F 37.4 °F 76% 29.52 in 10.0 mi South 8.1 mph - N/A   Overcast
6:19 AM 44.6 °F 40.2 °F 37.4 °F 76% 29.51 in 10.0 mi South 8.1 mph - 0.00 in Rain Light Rain
6:51 AM 43.0 °F 38.8 °F 37.0 °F 80% 29.52 in 10.0 mi SSE 6.9 mph - 0.01 in Rain Light Rain
7:51 AM 42.1 °F 35.7 °F 35.1 °F 76% 29.49 in 10.0 mi SE 11.5 mph 18.4 mph 0.01 in Rain Light Rain
8:51 AM 42.1 °F 36.6 °F 35.1 °F 76% 29.45 in 10.0 mi SSE 9.2 mph - 0.01 in Rain Light Rain
9:51 AM 42.1 °F 36.6 °F 34.0 °F 73% 29.42 in 10.0 mi South 9.2 mph - 0.00 in   Overcast
10:38 AM 41.0 °F 36.4 °F 35.6 °F 81% 29.38 in 10.0 mi South 6.9 mph - 0.00 in Rain Light Rain
10:51 AM 41.0 °F 35.2 °F 35.1 °F 79% 29.42 in 10.0 mi South 9.2 mph - 0.00 in Rain Light Rain
11:18 AM 41.0 °F 37.1 °F 35.6 °F 81% 29.36 in 10.0 mi Variable 5.8 mph - 0.00 in   Overcast
11:51 AM 41.0 °F 35.8 °F 34.0 °F 76% 29.39 in 10.0 mi SSW 8.1 mph - 0.00 in Rain Light Rain
12:34 PM 39.2 °F 33.0 °F 35.6 °F 87% 29.34 in 10.0 mi SSW 9.2 mph - 0.00 in Rain Light Rain
12:51 PM 39.9 °F 34.5 °F 35.1 °F 83% 29.39 in 10.0 mi South 8.1 mph - 0.00 in Rain Light Rain
1:51 PM 39.0 °F 33.4 °F 34.0 °F 82% 29.36 in 10.0 mi WSW 8.1 mph - 0.01 in Rain Light Rain
2:51 PM 37.9 °F 34.4 °F 33.1 °F 83% 29.35 in 10.0 mi WSW 4.6 mph - 0.00 in Rain Light Rain
3:29 PM 35.6 °F 26.6 °F 30.2 °F 81% 29.32 in 3.0 mi WNW 13.8 mph 23.0 mph 0.01 in Snow Light Snow
3:51 PM 34.0 °F 27.2 °F 30.0 °F 85% 29.37 in 9.0 mi West 8.1 mph - 0.01 in   Overcast
4:14 PM 33.8 °F 28.6 °F 28.4 °F 81% 29.35 in 10.0 mi Variable 5.8 mph 16.1 mph 0.00 in   Overcast
4:43 PM 32.0 °F 23.0 °F 28.4 °F 87% 29.35 in 1.8 mi NNW 11.5 mph - 0.00 in Snow Light Snow
4:51 PM 32.0 °F 24.2 °F 28.0 °F 85% 29.40 in 1.8 mi NW 9.2 mph - 0.00 in Snow Light Snow
5:04 PM 32.0 °F 24.8 °F 26.6 °F 80% 29.37 in 3.0 mi NW 8.1 mph - 0.00 in Snow Light Snow
5:51 PM 30.9 °F 25.2 °F 25.0 °F 79% 29.42 in 10.0 mi NW 5.8 mph - 0.00 in   Overcast
6:51 PM 30.0 °F 20.0 °F 24.1 °F 79% 29.44 in 9.0 mi NW 12.7 mph - 0.00 in Snow Light Snow
7:51 PM 28.9 °F 21.1 °F 23.0 °F 78% 29.45 in 10.0 mi NW 8.1 mph - 0.00 in   Overcast
8:51 PM 28.0 °F 19.3 °F 23.0 °F 81% 29.44 in 8.0 mi West 9.2 mph - 0.00 in Snow Light Snow
9:05 PM 28.4 °F 18.5 °F 21.2 °F 74% 29.39 in 6.0 mi WNW 11.5 mph - 0.00 in Snow Light Snow
9:22 PM 26.6 °F 15.7 °F 21.2 °F 80% 29.40 in 4.0 mi WNW 12.7 mph - 0.00 in Snow Light Snow
9:51 PM 26.1 °F 14.5 °F 19.0 °F 75% 29.46 in 4.0 mi West 13.8 mph 24.2 mph 0.00 in Snow Light Snow